^^
Station Historical Data
Daily Summary for January 2, 2018 Units:  Metric    English   Both
« Previous Day
Next Day »
Daily Weekly Monthly Yearly Custom
  High: Low: Average:
Temperature: -17.8 °C 16.8 °C 25.3 °C
Dew Point: -17.8 °C -6.2 °C -2.2 °C
Humidity: Humidity% 9% 17%
Wind Speed: 0km/h 0km/h 3.7km/h
Wind Gust: 0km/h - -
Wind- - SE
Pressure: 0 hPa 1017.5 hPa -
Precipitation: 0 mm    
Historical Graphs
 
 
Tabular Data for January 2, 2018
Time Temperature Dew Point Pressure Wind Wind Speed Wind Gust Humidity Rainfall Rate (Hourly) solar Conditions
-17.8 °C -17.8 °C 0 hPa Calm     Humidity% 0 mm SolarRadiationWatts/m^2 W/m2 Conditions
00:00 22 °C -0.7 °C 1020.5 hPa SW 4.7 km/h 8 km/h 22% 0 mm 0.0 W/m2
00:03 22 °C -0.7 °C 1020.5 hPa SSE 1.4 km/h 3.2 km/h 22% 0 mm 0.0 W/m2
00:08 22.1 °C 0 °C 1020.5 hPa Calm   6.4 km/h 23% 0 mm 0.0 W/m2
00:13 22.1 °C 0 °C 1020.5 hPa Calm   1.6 km/h 23% 0 mm 0.0 W/m2
00:19 21.9 °C -0.2 °C 1020.2 hPa Calm     23% 0 mm 0.0 W/m2
00:24 21.9 °C -0.2 °C 1020.2 hPa Calm   1.6 km/h 23% 0 mm 0.0 W/m2
00:26 21.8 °C -0.3 °C 1020.2 hPa Calm   1.6 km/h 23% 0 mm 0.0 W/m2
00:29 21.7 °C -0.3 °C 1020.2 hPa Calm     23% 0 mm 0.0 W/m2
00:34 21.6 °C 0.2 °C 1020.2 hPa Calm   1.6 km/h 24% 0 mm 0.0 W/m2
00:39 21.5 °C 0.1 °C 1020.2 hPa Calm   8 km/h 24% 0 mm 0.0 W/m2
00:43 21.4 °C 0.6 °C 1019.9 hPa South 3.2 km/h 8 km/h 25% 0 mm 0.0 W/m2
00:48 21.4 °C 0.6 °C 1019.9 hPa East 9.7 km/h 9.7 km/h 25% 0 mm 0.0 W/m2
00:53 21.6 °C 0.7 °C 1019.9 hPa SSE 13 km/h 13 km/h 25% 0 mm 0.0 W/m2
00:59 21.6 °C 0.2 °C 1019.9 hPa SSE 1.4 km/h 11.3 km/h 24% 0 mm 0.0 W/m2
01:05 21.6 °C 0.2 °C 1019.9 hPa ESE 4.7 km/h 11.3 km/h 24% 0 mm 0.0 W/m2
01:08 21.7 °C 0.2 °C 1019.9 hPa ESE 1.4 km/h 12.9 km/h 24% 0 mm 0.0 W/m2
01:13 21.7 °C 0.2 °C 1019.5 hPa ESE 4.7 km/h 8 km/h 24% 0 mm 0.0 W/m2
01:18 21.7 °C 0.2 °C 1019.5 hPa SE 4.7 km/h 22.5 km/h 24% 0 mm 0.0 W/m2
01:24 21.6 °C 0.2 °C 1019.5 hPa SE 6.4 km/h 8 km/h 24% 0 mm 0.0 W/m2
01:25 21.6 °C 0.2 °C 1019.5 hPa ESE 3.2 km/h 8 km/h 24% 0 mm 0.0 W/m2
01:28 21.7 °C 0.2 °C 1019.5 hPa SE 3.2 km/h 6.4 km/h 24% 0 mm 0.0 W/m2
01:34 21.6 °C 0.2 °C 1019.5 hPa SSE 11.1 km/h 17.7 km/h 24% 0 mm 0.0 W/m2
01:39 21.6 °C 0.2 °C 1019.5 hPa SSE 19.5 km/h 20.9 km/h 24% 0 mm 0.0 W/m2
01:44 21.6 °C 0.2 °C 1019.5 hPa SSE 6.4 km/h 12.9 km/h 24% 0 mm 0.0 W/m2
01:49 21.6 °C 0.2 °C 1019.5 hPa SE 7.9 km/h 8 km/h 24% 0 mm 0.0 W/m2
01:55 21.4 °C 0 °C 1019.5 hPa Calm   8 km/h 24% 0 mm 0.0 W/m2
01:58 21.4 °C 0 °C 1019.5 hPa ESE 6.4 km/h 8 km/h 24% 0 mm 0.0 W/m2
02:03 21.3 °C -0.1 °C 1019.2 hPa SE 1.4 km/h 8 km/h 24% 0 mm 0.0 W/m2
02:08 21.2 °C -0.2 °C 1019.5 hPa WSW 6.4 km/h 6.4 km/h 24% 0 mm 0.0 W/m2
02:14 21.2 °C -0.2 °C 1019.2 hPa SE 11.1 km/h 12.9 km/h 24% 0 mm 0.0 W/m2
02:20 21.2 °C -0.8 °C 1019.2 hPa ESE 3.2 km/h 12.9 km/h 23% 0 mm 0.0 W/m2
02:24 21.2 °C -0.8 °C 1019.2 hPa Calm   4.8 km/h 23% 0 mm 0.0 W/m2
02:29 21.1 °C -0.8 °C 1019.2 hPa Calm   3.2 km/h 23% 0 mm 0.0 W/m2
02:34 21 °C -0.3 °C 1019.2 hPa Calm   6.4 km/h 24% 0 mm 0.0 W/m2
02:39 20.9 °C -0.4 °C 1019.2 hPa Calm   3.2 km/h 24% 0 mm 0.0 W/m2
02:46 20.8 °C -0.5 °C 1019.2 hPa Calm     24% 0 mm 0.0 W/m2
02:51 20.7 °C -0.6 °C 1019.2 hPa Calm   3.2 km/h 24% 0 mm 0.0 W/m2
02:56 20.5 °C -0.8 °C 1019.2 hPa NNE 4.7 km/h 8 km/h 24% 0 mm 0.0 W/m2
03:01 20.4 °C -0.9 °C 1018.8 hPa NNE 1.4 km/h 3.2 km/h 24% 0 mm 0.0 W/m2
03:06 20.3 °C -0.9 °C 1018.8 hPa Calm   4.8 km/h 24% 0 mm 0.0 W/m2
03:11 20.2 °C -1 °C 1019.2 hPa East 4.7 km/h 8 km/h 24% 0 mm 0.0 W/m2
03:15 20.1 °C -1.1 °C 1019.2 hPa ENE 4.7 km/h 4.8 km/h 24% 0 mm 0.0 W/m2
03:20 20 °C -1.2 °C 1019.2 hPa NNE 1.4 km/h 4.8 km/h 24% 0 mm 0.0 W/m2
03:21 20 °C -1.2 °C 1019.2 hPa Calm   1.6 km/h 24% 0 mm 0.0 W/m2
03:26 19.9 °C -1.3 °C 1019.2 hPa SE 1.4 km/h 4.8 km/h 24% 0 mm 0.0 W/m2
03:29 19.8 °C -1.4 °C 1019.2 hPa SE 3.2 km/h 8 km/h 24% 0 mm 0.0 W/m2
03:35 19.7 °C -1.4 °C 1018.8 hPa East 3.2 km/h 4.8 km/h 24% 0 mm 0.0 W/m2
03:40 19.6 °C -1 °C 1019.2 hPa SSE 3.2 km/h 4.8 km/h 25% 0 mm 0.0 W/m2
03:45 19.6 °C -1.5 °C 1018.8 hPa SE 1.4 km/h 4.8 km/h 24% 0 mm 0.0 W/m2
03:50 19.6 °C -1 °C 1019.2 hPa Calm   1.6 km/h 25% 0 mm 0.0 W/m2
03:55 19.4 °C -1.1 °C 1018.8 hPa Calm   3.2 km/h 25% 0 mm 0.0 W/m2
03:56 19.4 °C -1.1 °C 1018.8 hPa Calm   1.6 km/h 25% 0 mm 0.0 W/m2
04:05 19.1 °C -1.4 °C 1019.2 hPa Calm   1.6 km/h 25% 0 mm 0.0 W/m2
04:10 18.9 °C -2.1 °C 1019.2 hPa ESE 1.4 km/h 8 km/h 24% 0 mm 0.0 W/m2
04:21 18.6 °C -2.4 °C 1019.2 hPa Calm   4.8 km/h 24% 0 mm 0.0 W/m2
04:26 18.6 °C -2.4 °C 1019.2 hPa East 3.2 km/h 4.8 km/h 24% 0 mm 0.0 W/m2
04:29 18.5 °C -2.5 °C 1019.2 hPa ENE 4.7 km/h 4.8 km/h 24% 0 mm 0.0 W/m2
04:34 18.4 °C -3.1 °C 1019.2 hPa East 1.4 km/h 8 km/h 23% 0 mm 0.0 W/m2
04:44 18.3 °C -3.2 °C 1019.2 hPa Calm   3.2 km/h 23% 0 mm 0.0 W/m2
04:49 18.3 °C -3.2 °C 1019.2 hPa East 3.2 km/h 8 km/h 23% 0 mm 0.0 W/m2
05:00 18.3 °C -3.2 °C 1019.2 hPa Calm   3.2 km/h 23% 0 mm 0.0 W/m2
05:06 18.3 °C -2.6 °C 1019.2 hPa Calm   4.8 km/h 24% 0 mm 0.0 W/m2
05:20 18.2 °C -2.7 °C 1019.5 hPa Calm   3.2 km/h 24% 0 mm 0.0 W/m2
05:25 17.9 °C -3 °C 1019.5 hPa ESE 1.4 km/h 9.7 km/h 24% 0 mm 0.0 W/m2
05:30 17.8 °C -3 °C 1019.5 hPa ENE 4.7 km/h 6.4 km/h 24% 0 mm 0.0 W/m2
05:40 17.6 °C -2.7 °C 1019.5 hPa ENE 1.4 km/h 3.2 km/h 25% 0 mm 0.0 W/m2
05:45 17.5 °C -2.8 °C 1019.5 hPa Calm   4.8 km/h 25% 0 mm 0.0 W/m2
05:50 17.4 °C -2.8 °C 1019.5 hPa ENE 3.2 km/h 4.8 km/h 25% 0 mm 0.0 W/m2
05:56 17.3 °C -2.9 °C 1019.5 hPa Calm   4.8 km/h 25% 0 mm 0.0 W/m2
06:02 17.2 °C -3 °C 1019.9 hPa Calm   6.4 km/h 25% 0 mm 0.0 W/m2
06:07 17.1 °C -3.1 °C 1019.9 hPa East 1.4 km/h 1.6 km/h 25% 0 mm 0.0 W/m2
06:10 17.1 °C -3.1 °C 1019.9 hPa ENE 1.4 km/h 8 km/h 25% 0 mm 0.0 W/m2
06:15 16.9 °C -3.3 °C 1019.9 hPa ENE 3.2 km/h 6.4 km/h 25% 0 mm 5.0 W/m2
06:20 16.9 °C -2.7 °C 1019.9 hPa ESE 1.4 km/h 4.8 km/h 26% 0 mm 7.0 W/m2
06:30 16.8 °C -2.8 °C 1020.2 hPa ENE 1.4 km/h 3.2 km/h 26% 0 mm 9.0 W/m2
06:33 16.8 °C -2.8 °C 1020.2 hPa ENE 6.4 km/h 6.4 km/h 26% 0 mm 11.0 W/m2
06:38 16.8 °C -2.8 °C 1020.2 hPa ENE 4.7 km/h 4.8 km/h 26% 0 mm 12.0 W/m2
06:43 16.8 °C -2.8 °C 1020.2 hPa NE 4.7 km/h 4.8 km/h 26% 0 mm 12.0 W/m2
06:50 16.8 °C -2.3 °C 1020.2 hPa SE 1.4 km/h 3.2 km/h 27% 0 mm 16.0 W/m2
06:55 16.8 °C -2.3 °C 1020.5 hPa Calm   3.2 km/h 27% 0 mm 16.0 W/m2
07:00 16.9 °C -2.2 °C 1020.5 hPa Calm   8 km/h 27% 0 mm 18.0 W/m2
07:15 17.4 °C -2.3 °C 1020.9 hPa ESE 3.2 km/h 6.4 km/h 26% 0 mm 21.0 W/m2
07:25 18.2 °C -2.7 °C 1020.9 hPa NNE 6.4 km/h 12.9 km/h 24% 0 mm 21.0 W/m2
07:30 18.7 °C -2.9 °C 1020.9 hPa East 11.1 km/h 11.3 km/h 23% 0 mm 23.0 W/m2
07:39 19.3 °C -3 °C 1020.9 hPa SE 3.2 km/h 8 km/h 22% 0 mm 25.0 W/m2
07:44 19.6 °C -2.7 °C 1020.9 hPa ENE 3.2 km/h 8 km/h 22% 0 mm 26.0 W/m2
07:47 19.8 °C -1.9 °C 1020.9 hPa NE 1.4 km/h 9.7 km/h 23% 0 mm 72.0 W/m2
07:52 19.9 °C -1.9 °C 1020.9 hPa ESE 1.4 km/h 8 km/h 23% 0 mm 359.0 W/m2
07:57 20.2 °C -2.2 °C 1020.9 hPa ENE 1.4 km/h 9.7 km/h 22% 0 mm 394.0 W/m2
08:02 20.7 °C -2.4 °C 1020.9 hPa Calm   6.4 km/h 21% 0 mm 417.0 W/m2
08:08 21.3 °C -2.6 °C 1020.9 hPa East 4.7 km/h 11.3 km/h 20% 0 mm 438.0 W/m2
08:09 21.4 °C -2.5 °C 1020.9 hPa East 9.7 km/h 9.7 km/h 20% 0 mm 441.0 W/m2
08:14 21.9 °C -1.4 °C 1020.9 hPa Calm   9.7 km/h 21% 0 mm 462.0 W/m2
08:19 22.4 °C -2.4 °C 1020.9 hPa NE 6.4 km/h 11.3 km/h 19% 0 mm 482.0 W/m2
08:24 22.9 °C -2 °C 1020.9 hPa Calm   9.7 km/h 19% 0 mm 503.0 W/m2
08:39 23.8 °C -1.2 °C 1020.9 hPa East 6.4 km/h 8 km/h 19% 0 mm 561.0 W/m2
08:44 24.1 °C -2.5 °C 1021.2 hPa NE 7.9 km/h 11.3 km/h 17% 0 mm 580.0 W/m2
08:55 24.3 °C -1.5 °C 1021.2 hPa SSE 3.2 km/h 3.2 km/h 18% 0 mm 621.0 W/m2
09:00 24.4 °C -1.5 °C 1021.2 hPa East 3.2 km/h 12.9 km/h 18% 0 mm 640.0 W/m2
09:17 24.8 °C -1.1 °C 1021.2 hPa ESE 3.2 km/h 8 km/h 18% 0 mm 696.0 W/m2
09:23 24.9 °C -1.8 °C 1021.2 hPa East 1.4 km/h 9.7 km/h 17% 0 mm 714.0 W/m2
09:28 24.9 °C -1.1 °C 1021.6 hPa SE 1.4 km/h 8 km/h 18% 0 mm 735.0 W/m2
09:33 25 °C -1 °C 1021.6 hPa ESE 1.4 km/h 11.3 km/h 18% 0 mm 751.0 W/m2
09:44 25.7 °C -1.2 °C 1021.6 hPa NE 6.4 km/h 12.9 km/h 17% 0 mm 788.0 W/m2
09:49 26 °C -1.8 °C 1021.6 hPa ENE 1.4 km/h 11.3 km/h 16% 0 mm 803.0 W/m2
09:54 26.2 °C -1.6 °C 1021.6 hPa ESE 6.4 km/h 11.3 km/h 16% 0 mm 819.0 W/m2
10:15 26.6 °C -1.3 °C 1021.6 hPa East 6.4 km/h 17.7 km/h 16% 0 mm 879.0 W/m2
10:25 26.7 °C -2.1 °C 1021.6 hPa NE 13 km/h 20.9 km/h 15% 0 mm 902.0 W/m2
10:30 26.6 °C -1.3 °C 1021.6 hPa NE 11.1 km/h 20.9 km/h 16% 0 mm 914.0 W/m2
10:36 26.6 °C -2.2 °C 1021.6 hPa NNE 11.1 km/h 19.3 km/h 15% 0 mm 928.0 W/m2
10:41 26.6 °C -2.2 °C 1021.6 hPa ENE 16.3 km/h 16.3 km/h 15% 0 mm 940.0 W/m2
10:45 26.7 °C -1.2 °C 1021.6 hPa ENE 7.9 km/h 14.5 km/h 16% 0 mm 951.0 W/m2
10:50 26.9 °C -1.9 °C 1021.6 hPa NE 9.7 km/h 14.5 km/h 15% 0 mm 962.0 W/m2
10:55 27.1 °C -1.8 °C 1021.9 hPa SSE 13 km/h 13 km/h 15% 0 mm 972.0 W/m2
11:00 27.2 °C -1.7 °C 1021.6 hPa ENE 13 km/h 14.5 km/h 15% 0 mm 983.0 W/m2
11:05 27.6 °C -2.3 °C 1021.9 hPa ESE 11.1 km/h 14.5 km/h 14% 0 mm 993.0 W/m2
11:10 27.7 °C -2.2 °C 1021.9 hPa ENE 7.9 km/h 11.3 km/h 14% 0 mm 1002.0 W/m2
11:15 27.7 °C -2.2 °C 1021.6 hPa NE 3.2 km/h 19.3 km/h 14% 0 mm 1011.0 W/m2
11:20 27.6 °C -2.3 °C 1021.6 hPa NNW 6.4 km/h 17.7 km/h 14% 0 mm 1018.0 W/m2
11:25 27.8 °C -2.1 °C 1021.6 hPa NE 7.9 km/h 12.9 km/h 14% 0 mm 1027.0 W/m2
11:30 27.9 °C -2.1 °C 1021.6 hPa NNE 3.2 km/h 9.7 km/h 14% 0 mm 1035.0 W/m2
11:33 27.9 °C -2.1 °C 1021.6 hPa NE 1.4 km/h 14.5 km/h 14% 0 mm 1039.0 W/m2
11:38 28.3 °C -1.8 °C 1021.6 hPa North 3.2 km/h 12.9 km/h 14% 0 mm 1044.0 W/m2
11:43 28.6 °C -0.6 °C 1021.6 hPa ESE 6.4 km/h 12.9 km/h 15% 0 mm 1051.0 W/m2
11:45 28.6 °C -1.5 °C 1021.6 hPa East 3.2 km/h 12.9 km/h 14% 0 mm 1055.0 W/m2
11:51 28.5 °C -1.6 °C 1021.6 hPa NNE 11.1 km/h 14.5 km/h 14% 0 mm 1062.0 W/m2
11:57 28.8 °C -1.4 °C 1021.6 hPa ENE 6.4 km/h 12.9 km/h 14% 0 mm 1065.0 W/m2
12:01 28.9 °C -2.3 °C 1021.6 hPa Calm   6.4 km/h 13% 0 mm 1069.0 W/m2
12:07 29.1 °C -1.1 °C 1021.6 hPa ESE 7.9 km/h 14.5 km/h 14% 0 mm 1074.0 W/m2
12:20 29.2 °C -2 °C 1021.2 hPa NE 9.7 km/h 16.1 km/h 13% 0 mm 1083.0 W/m2
12:23 29.4 °C -1.9 °C 1021.2 hPa North 7.9 km/h 11.3 km/h 13% 0 mm 1083.0 W/m2
12:29 29.5 °C -1.8 °C 1021.2 hPa NNW 4.7 km/h 16.1 km/h 13% 0 mm 1085.0 W/m2
12:34 29.6 °C -1.7 °C 1021.2 hPa NE 9.7 km/h 16.1 km/h 13% 0 mm 1088.0 W/m2
12:39 29.6 °C -1.7 °C 1021.2 hPa WNW 4.7 km/h 14.5 km/h 13% 0 mm 1090.0 W/m2
12:45 29.6 °C -1.7 °C 1021.2 hPa East 6.4 km/h 16.1 km/h 13% 0 mm 1092.0 W/m2
12:50 29.7 °C -1.7 °C 1021.2 hPa East 4.7 km/h 11.3 km/h 13% 0 mm 1079.0 W/m2
12:55 29.9 °C -1.5 °C 1020.9 hPa Calm   8 km/h 13% 0 mm 1072.0 W/m2
13:01 30 °C -1.4 °C 1020.9 hPa East 1.4 km/h 14.5 km/h 13% 0 mm 1079.0 W/m2
13:07 30.3 °C -2.3 °C 1020.9 hPa NNW 7.9 km/h 16.1 km/h 12% 0 mm 1081.0 W/m2
13:09 30.4 °C -2.2 °C 1020.9 hPa NE 1.4 km/h 9.7 km/h 12% 0 mm 1085.0 W/m2
13:19 30.8 °C -1.9 °C 1020.9 hPa Calm   8 km/h 12% 0 mm 1071.0 W/m2
13:25 31 °C -1.7 °C 1020.9 hPa NNW 4.7 km/h 11.3 km/h 12% 0 mm 1074.0 W/m2
13:30 31.2 °C -1.6 °C 1020.9 hPa ENE 9.7 km/h 9.7 km/h 12% 0 mm 1074.0 W/m2
13:41 31.8 °C -1.1 °C 1020.5 hPa ENE 11.1 km/h 12.9 km/h 12% 0 mm 1063.0 W/m2
13:46 31.8 °C -1.1 °C 1020.5 hPa North 3.2 km/h 8 km/h 12% 0 mm 1056.0 W/m2
13:51 31.8 °C -1.1 °C 1020.5 hPa Calm   4.8 km/h 12% 0 mm 1053.0 W/m2
14:13 31.6 °C -2.5 °C 1020.2 hPa North 4.7 km/h 6.4 km/h 11% 0 mm 1030.0 W/m2
14:16 31.7 °C -2.4 °C 1020.2 hPa WSW 4.7 km/h 6.4 km/h 11% 0 mm 1023.0 W/m2
14:26 31.5 °C -2.5 °C 1019.9 hPa WSW 1.4 km/h 11.3 km/h 11% 0 mm 1004.0 W/m2
14:31 31 °C -2.9 °C 1019.9 hPa Calm   1.6 km/h 11% 0 mm 998.0 W/m2
14:37 31.2 °C -1.6 °C 1019.9 hPa South 6.4 km/h 6.4 km/h 12% 0 mm 986.0 W/m2
14:42 31.7 °C -2.4 °C 1019.5 hPa ESE 6.4 km/h 11.3 km/h 11% 0 mm 977.0 W/m2
14:47 31.9 °C -3.5 °C 1019.9 hPa WNW 1.4 km/h 4.8 km/h 10% 0 mm 967.0 W/m2
14:53 32.2 °C -3.3 °C 1019.5 hPa NNE 4.7 km/h 11.3 km/h 10% 0 mm 954.0 W/m2
14:59 32.2 °C -3.3 °C 1019.5 hPa SW 3.2 km/h 6.4 km/h 10% 0 mm 940.0 W/m2
15:04 31.9 °C -3.5 °C 1019.2 hPa Calm   1.6 km/h 10% 0 mm 928.0 W/m2
15:09 32.2 °C -3.3 °C 1019.2 hPa Calm   8 km/h 10% 0 mm 916.0 W/m2
15:11 32.4 °C -1.8 °C 1019.2 hPa Calm   4.8 km/h 11% 0 mm 911.0 W/m2
15:19 33.1 °C -2.6 °C 1019.2 hPa North 7.9 km/h 8 km/h 10% 0 mm 891.0 W/m2
15:25 32.9 °C -2.7 °C 1018.8 hPa NW 4.7 km/h 11.3 km/h 10% 0 mm 877.0 W/m2
15:30 33.2 °C -1.2 °C 1018.8 hPa West 7.9 km/h 9.7 km/h 11% 0 mm 861.0 W/m2
15:35 33.4 °C -2.4 °C 1018.8 hPa NNW 13 km/h 14.5 km/h 10% 0 mm 847.0 W/m2
15:43 33.2 °C -2.5 °C 1018.8 hPa WSW 3.2 km/h 8 km/h 10% 0 mm 824.0 W/m2
15:44 33.1 °C -2.6 °C 1018.8 hPa NE 4.7 km/h 8 km/h 10% 0 mm 817.0 W/m2
15:53 33.2 °C -2.5 °C 1018.5 hPa SSE 7.9 km/h 11.3 km/h 10% 0 mm 793.0 W/m2
16:00 33.4 °C -2.4 °C 1018.5 hPa ENE 4.7 km/h 9.7 km/h 10% 0 mm 777.0 W/m2
16:05 33.3 °C -3.9 °C 1018.2 hPa Calm   3.2 km/h 9% 0 mm 759.0 W/m2
16:10 33.3 °C -2.4 °C 1018.2 hPa Calm   1.6 km/h 10% 0 mm 744.0 W/m2
16:15 33.3 °C -1.1 °C 1017.5 hPa East 16.3 km/h 16.3 km/h 11% 0 mm 728.0 W/m2
16:19 33.7 °C -2.1 °C 1018.2 hPa North 4.7 km/h 8 km/h 10% 0 mm 724.0 W/m2
16:24 34.1 °C -1.8 °C 1018.2 hPa WNW 3.2 km/h 3.2 km/h 10% 0 mm 719.0 W/m2
16:29 34.2 °C -1.8 °C 1018.2 hPa Calm   20.9 km/h 10% 0 mm 722.0 W/m2
16:34 34 °C -3.3 °C 1018.2 hPa Calm   4.8 km/h 9% 0 mm 719.0 W/m2
16:39 33.7 °C -2.1 °C 1017.8 hPa SW 3.2 km/h 11.3 km/h 10% 0 mm 707.0 W/m2
16:44 33.3 °C -2.4 °C 1017.8 hPa NW 9.7 km/h 11.3 km/h 10% 0 mm 83.0 W/m2
16:54 32.3 °C -3.2 °C 1017.5 hPa NE 1.4 km/h 6.4 km/h 10% 0 mm 612.0 W/m2
16:58 32.3 °C -3.2 °C 1017.5 hPa NW 6.4 km/h 12.9 km/h 10% 0 mm 654.0 W/m2
17:03 32.3 °C -1.9 °C 1017.5 hPa West 1.4 km/h 8 km/h 11% 0 mm 114.0 W/m2
17:08 32.2 °C -2 °C 1017.5 hPa Calm   3.2 km/h 11% 0 mm 93.0 W/m2
17:13 32 °C -1 °C 1017.5 hPa Calm   1.6 km/h 12% 0 mm 90.0 W/m2
17:18 31.7 °C -2.4 °C 1017.5 hPa Calm   1.6 km/h 11% 0 mm 111.0 W/m2
17:23 31.5 °C -1.3 °C 1017.5 hPa WSW 3.2 km/h 6.4 km/h 12% 0 mm 100.0 W/m2
17:28 31.3 °C -2.7 °C 1017.5 hPa Calm     11% 0 mm 98.0 W/m2
17:33 31.5 °C -2.5 °C 1017.5 hPa North 1.4 km/h 4.8 km/h 11% 0 mm 155.0 W/m2
17:38 31.7 °C -2.4 °C 1017.5 hPa Calm   3.2 km/h 11% 0 mm 109.0 W/m2
17:43 31.6 °C -2.5 °C 1017.5 hPa Calm   4.8 km/h 11% 0 mm 123.0 W/m2
17:49 31.3 °C -1.5 °C 1017.5 hPa Calm     12% 0 mm 100.0 W/m2
17:55 31.1 °C -1.7 °C 1017.5 hPa WSW 4.7 km/h 6.4 km/h 12% 0 mm 102.0 W/m2
17:59 30.9 °C -1.8 °C 1017.5 hPa WSW 4.7 km/h 6.4 km/h 12% 0 mm 98.0 W/m2
18:04 30.7 °C -2 °C 1017.5 hPa Calm   1.6 km/h 12% 0 mm 86.0 W/m2
18:06 30.7 °C -2 °C 1017.5 hPa Calm   4.8 km/h 12% 0 mm 81.0 W/m2
18:12 30.5 °C -1 °C 1017.5 hPa SSW 3.2 km/h 6.4 km/h 13% 0 mm 70.0 W/m2
18:17 30.4 °C -2.2 °C 1017.5 hPa South 1.4 km/h 4.8 km/h 12% 0 mm 69.0 W/m2
18:22 30.2 °C -2.4 °C 1017.8 hPa SSW 3.2 km/h 4.8 km/h 12% 0 mm 84.0 W/m2
18:25 30.2 °C -2.4 °C 1017.5 hPa SE 4.7 km/h 12.9 km/h 12% 0 mm 83.0 W/m2
18:30 30.1 °C -1.3 °C 1017.8 hPa Calm   9.7 km/h 13% 0 mm 76.0 W/m2
18:34 30.1 °C -2.4 °C 1017.8 hPa SSW 1.4 km/h 4.8 km/h 12% 0 mm 65.0 W/m2
18:39 30.1 °C -2.4 °C 1017.8 hPa Calm   6.4 km/h 12% 0 mm 60.0 W/m2
18:44 30.1 °C -2.4 °C 1017.8 hPa SE 6.4 km/h 8 km/h 12% 0 mm 70.0 W/m2
18:49 30.1 °C -2.4 °C 1017.8 hPa Calm   9.7 km/h 12% 0 mm 54.0 W/m2
18:51 30.1 °C -2.4 °C 1017.8 hPa SE 4.7 km/h 6.4 km/h 12% 0 mm 54.0 W/m2
18:57 30.1 °C -1.3 °C 1017.8 hPa SSE 1.4 km/h 9.7 km/h 13% 0 mm 51.0 W/m2
19:02 30.2 °C -1.3 °C 1017.8 hPa SSE 3.2 km/h 3.2 km/h 13% 0 mm 49.0 W/m2
19:08 30.1 °C -2.4 °C 1018.2 hPa South 7.9 km/h 12.9 km/h 12% 0 mm 33.0 W/m2
19:19 29.6 °C -2.8 °C 1018.2 hPa Calm   4.8 km/h 12% 0 mm 25.0 W/m2
19:24 29.4 °C -3 °C 1018.2 hPa South 4.7 km/h 4.8 km/h 12% 0 mm 19.0 W/m2
19:38 29 °C -2.2 °C 1018.5 hPa SSE 4.7 km/h 11.3 km/h 13% 0 mm 5.0 W/m2
19:43 28.8 °C -2.4 °C 1018.5 hPa SSE 6.4 km/h 8 km/h 13% 0 mm 0.0 W/m2
19:54 28.4 °C -2.7 °C 1018.8 hPa SSE 4.7 km/h 12.9 km/h 13% 0 mm 0.0 W/m2
20:05 28.1 °C -2.9 °C 1018.8 hPa SE 9.7 km/h 11.3 km/h 13% 0 mm 0.0 W/m2
20:09 28 °C -3 °C 1018.8 hPa SE 14.3 km/h 14.5 km/h 13% 0 mm 0.0 W/m2
20:14 27.9 °C -3.1 °C 1018.8 hPa SE 11.1 km/h 12.9 km/h 13% 0 mm 0.0 W/m2
20:19 27.8 °C -3.1 °C 1019.2 hPa ESE 9.7 km/h 9.7 km/h 13% 0 mm 0.0 W/m2
20:24 27.6 °C -3.3 °C 1019.2 hPa SE 6.4 km/h 11.3 km/h 13% 0 mm 0.0 W/m2
20:30 27.5 °C -3.4 °C 1019.2 hPa ESE 3.2 km/h 9.7 km/h 13% 0 mm 0.0 W/m2
20:35 27.3 °C -3.5 °C 1019.2 hPa SE 4.7 km/h 12.9 km/h 13% 0 mm 0.0 W/m2
20:40 27.2 °C -2.6 °C 1019.5 hPa East 3.2 km/h 9.7 km/h 14% 0 mm 0.0 W/m2
20:46 27 °C -2.8 °C 1019.5 hPa ESE 1.4 km/h 12.9 km/h 14% 0 mm 0.0 W/m2
20:51 26.8 °C -2.9 °C 1019.5 hPa ENE 7.9 km/h 8 km/h 14% 0 mm 0.0 W/m2
20:56 26.7 °C -3 °C 1019.5 hPa SE 1.4 km/h 12.9 km/h 14% 0 mm 0.0 W/m2
20:57 26.7 °C -3 °C 1019.5 hPa SE 4.7 km/h 14.5 km/h 14% 0 mm 0.0 W/m2
21:02 26.6 °C -3.1 °C 1019.5 hPa ESE 4.7 km/h 11.3 km/h 14% 0 mm 0.0 W/m2
21:08 26.4 °C -3.3 °C 1019.9 hPa South 3.2 km/h 8 km/h 14% 0 mm 0.0 W/m2
21:09 26.4 °C -3.3 °C 1019.9 hPa ESE 4.7 km/h 8 km/h 14% 0 mm 0.0 W/m2
21:15 26.2 °C -3.4 °C 1019.9 hPa ESE 3.2 km/h 11.3 km/h 14% 0 mm 0.0 W/m2
21:20 26.1 °C -3.5 °C 1019.9 hPa SE 3.2 km/h 11.3 km/h 14% 0 mm 0.0 W/m2
21:25 26.1 °C -3.5 °C 1019.9 hPa South 1.4 km/h 9.7 km/h 14% 0 mm 0.0 W/m2
21:37 25.9 °C -3.6 °C 1020.2 hPa Calm   4.8 km/h 14% 0 mm 0.0 W/m2
21:42 25.8 °C -3.7 °C 1020.2 hPa SSE 3.2 km/h 6.4 km/h 14% 0 mm 0.0 W/m2
21:47 25.7 °C -3.8 °C 1020.5 hPa Calm   3.2 km/h 14% 0 mm 0.0 W/m2
21:58 25.5 °C -3 °C 1020.5 hPa Calm   1.6 km/h 15% 0 mm 0.0 W/m2
22:01 25.4 °C -3.1 °C 1020.9 hPa Calm   3.2 km/h 15% 0 mm 0.0 W/m2
22:07 25.3 °C -3.2 °C 1020.9 hPa Calm   6.4 km/h 15% 0 mm 0.0 W/m2
22:12 25.2 °C -4.2 °C 1020.9 hPa SE 7.9 km/h 9.7 km/h 14% 0 mm 0.0 W/m2
22:18 25.2 °C -4.2 °C 1020.9 hPa ESE 6.4 km/h 11.3 km/h 14% 0 mm 0.0 W/m2
22:23 25.2 °C -4.2 °C 1020.9 hPa SSE 6.4 km/h 8 km/h 14% 0 mm 0.0 W/m2
22:24 25.2 °C -4.2 °C 1020.9 hPa ESE 6.4 km/h 14.5 km/h 14% 0 mm 0.0 W/m2
22:29 25.2 °C -4.2 °C 1020.9 hPa SE 3.2 km/h 4.8 km/h 14% 0 mm 0.0 W/m2
22:34 25.1 °C -4.3 °C 1020.9 hPa SE 4.7 km/h 8 km/h 14% 0 mm 0.0 W/m2
22:44 24.8 °C -4.5 °C 1021.2 hPa Calm   1.6 km/h 14% 0 mm 0.0 W/m2
22:50 24.8 °C -4.5 °C 1021.2 hPa Calm   1.6 km/h 14% 0 mm 0.0 W/m2
22:55 24.7 °C -4.6 °C 1021.2 hPa Calm   1.6 km/h 14% 0 mm 0.0 W/m2
23:00 24.5 °C -3.8 °C 1021.2 hPa Calm     15% 0 mm 0.0 W/m2
23:05 24.3 °C -3.1 °C 1021.2 hPa Calm   1.6 km/h 16% 0 mm 0.0 W/m2
23:10 24 °C -3.4 °C 1021.2 hPa NW 1.4 km/h 1.6 km/h 16% 0 mm 0.0 W/m2
23:18 23.6 °C -4.6 °C 1021.6 hPa ESE 8 km/h 8 km/h 15% 0 mm 0.0 W/m2
23:23 23.6 °C -4.6 °C 1021.6 hPa Calm   1.6 km/h 15% 0 mm 0.0 W/m2
23:28 23.6 °C -4.6 °C 1021.6 hPa ESE 4.7 km/h 4.8 km/h 15% 0 mm 0.0 W/m2
23:30 23.6 °C -4.6 °C 1021.6 hPa ESE 4.7 km/h 8 km/h 15% 0 mm 0.0 W/m2
23:38 23.7 °C -5.4 °C 1021.6 hPa ESE 3.2 km/h 11.3 km/h 14% 0 mm 0.0 W/m2
23:43 23.8 °C -5.3 °C 1021.6 hPa ESE 1.4 km/h 3.2 km/h 14% 0 mm 0.0 W/m2
23:50 23.9 °C -6.2 °C 1021.6 hPa East 1.4 km/h 6.4 km/h 13% 0 mm 0.0 W/m2
23:55 23.9 °C -6.2 °C 1021.6 hPa ENE 1.4 km/h 8 km/h 13% 0 mm 0.0 W/m2
23:58 23.9 °C -5.2 °C 1021.6 hPa East 6.4 km/h 6.4 km/h 14% 0 mm 0.0 W/m2
Olympia, Windhoek, Namibia
Compliments of Weather Underground - 3.25 mb